Weather History for KARB - November, 2014

Change the Weather History Date:

Sunday, November 2, 2014

  Actual Average Record
Temperature  
Mean Temperature 32 °F -  
Max Temperature 48 °F 53 °F 66 °F (2000)
Min Temperature 15 °F 33 °F 15 °F (2014)
Degree Days  
Heating Degree Days 34    
Moisture  
Dew Point 18 °F    
Average Humidity 64    
Maximum Humidity 89    
Minimum Humidity 26    
Precipitation  
Precipitation 0.00 in - - ()
Sea Level Pressure  
Sea Level Pressure 30.38 in    
Wind  
Wind Speed 3 mph (WSW)    
Max Wind Speed 10 mph    
Max Gust Speed -    
Visibility 10 miles    
Events      
Averages and records for this station are not official NWS values.
T = Trace of Precipitation, MM = Missing Value Source: NWS Daily Summary

Daily Weather History Graph

Daily Weather History Graph

Search for Another Location

Airport or City:

Trip Planner

Search our weather history database for the weather conditions in past years. The results will help you decide how hot, cold, wet, or windy it might be!

Date:

Astronomy

Nov. 02, 2014 Rise Set
Actual Time 7:09 AM EST 5:27 PM EST
Civil Twilight 6:40 AM EST 5:56 PM EST
Nautical Twilight 6:06 AM EST 6:29 PM EST
Astronomical Twilight 5:34 AM EST 7:02 PM EST
Moon 3:03 PM EST (11/2) 2:05 AM EST (11/2)
Length of Visible Light 11h 16m
Length of Day
10h 17m
Waxing Gibbous, 78% of the Moon is Illuminated
Nov 2
Waxing Gibbous
Nov 6
Full
Nov 14
Last Quarter
Nov 22
New
Nov 29
First Quarter

Hourly Weather History & Observations

Time (EST) Temp. Windchill Dew Point Humidity Pressure Visibility Wind Dir Wind Speed Gust Speed Precip Events Conditions
12:53 AM 21.0 °F - 18.0 °F 88% 30.38 in 10.0 mi Calm Calm - N/A   Clear
1:53 AM 19.9 °F 14.9 °F 17.1 °F 89% 30.38 in 10.0 mi NW 3.5 mph - N/A   Clear
1:53 AM 21.9 °F 17.2 °F 17.1 °F 82% 30.39 in 10.0 mi NW 3.5 mph - N/A   Clear
2:53 AM 19.9 °F 14.9 °F 17.1 °F 89% 30.40 in 10.0 mi NNW 3.5 mph - N/A   Clear
3:53 AM 19.0 °F - 15.1 °F 85% 30.41 in 10.0 mi Calm Calm - N/A   Clear
4:53 AM 17.1 °F - 12.0 °F 81% 30.43 in 10.0 mi Calm Calm - N/A   Clear
5:53 AM 18.0 °F - 14.0 °F 84% 30.44 in 10.0 mi Calm Calm - N/A   Clear
6:53 AM 15.1 °F - 12.0 °F 88% 30.44 in 10.0 mi Calm Calm - N/A   Clear
7:53 AM 21.0 °F - 18.0 °F 88% 30.45 in 10.0 mi Calm Calm - N/A   Clear
8:53 AM 32.0 °F 28.7 °F 24.1 °F 73% 30.45 in 10.0 mi West 3.5 mph - N/A   Clear
9:53 AM 37.9 °F 32.1 °F 21.9 °F 53% 30.45 in 10.0 mi West 8.1 mph - N/A   Clear
10:53 AM 39.0 °F 34.8 °F 19.9 °F 46% 30.45 in 10.0 mi West 5.8 mph - N/A   Clear
11:53 AM 42.1 °F 39.2 °F 19.0 °F 40% 30.42 in 10.0 mi SW 4.6 mph - N/A   Clear
12:53 PM 44.1 °F 40.8 °F 19.0 °F 37% 30.39 in 10.0 mi SW 5.8 mph - N/A   Clear
1:53 PM 46.0 °F 43.1 °F 17.1 °F 31% 30.36 in 10.0 mi West 5.8 mph - N/A   Clear
2:53 PM 48.0 °F - 14.0 °F 26% 30.34 in 10.0 mi West 4.6 mph - N/A   Clear
3:53 PM 48.9 °F - 15.1 °F 26% 30.33 in 10.0 mi West 10.4 mph - N/A   Clear
4:53 PM 46.0 °F 42.5 °F 19.0 °F 34% 30.33 in 10.0 mi SW 6.9 mph - N/A   Clear
5:53 PM 37.9 °F 33.5 °F 19.9 °F 48% 30.33 in 10.0 mi SW 5.8 mph - N/A   Clear
6:53 PM 35.1 °F 32.2 °F 19.9 °F 54% 30.33 in 10.0 mi SSW 3.5 mph - N/A   Clear
7:53 PM 30.0 °F - 21.0 °F 69% 30.32 in 10.0 mi Calm Calm - N/A   Clear
8:53 PM 28.0 °F - 19.9 °F 72% 30.32 in 10.0 mi Calm Calm - N/A   Clear
9:53 PM 28.0 °F 24.2 °F 21.9 °F 78% 30.31 in 10.0 mi SSW 3.5 mph - N/A   Clear
10:53 PM 30.9 °F 26.2 °F 21.0 °F 67% 30.30 in 10.0 mi SW 4.6 mph - N/A   Mostly Cloudy